STARLINK-36486, 67335

Orbit data source: Space-Track

STARLINK-36486, 67335 is a payload satellite owned by SpaceX/Seattle (US) in LEO that was launched on Fri, 09 Jan 2026 UTC via an FALCON 9 launch vehicle from the Air Force Eastern Test Range (AFETR). Payload-class satellites include a variety of spacecraft equipped with specific instruments for various scientific and technological missions. These include communications satellites like Starlink; space stations such as the ISS; scientific satellites like the Hubble; Earth observation satellites from companies like Planet Labs, Umbra, and HawkEye 360; GPS; miniature CubeSats for education and research; and military/defense satellites.

Loading next visibility...
Identifier
67335, 2026-003B
Orbit
LEO
Country
Flag of USUS
Related business
Manufacturer
SpaceX/Seattle
Mission
Operational Commercial Communications
Bus & Motor
STARLINK V2MO, Unknown motor
Mass
575 kg wet, ~530 kg dry
Launch date (UTC)
2026-01-09 (5 months ago)
Launch vehicle
FALCON 9
Launch site
Air Force Eastern Test Range (AFETR)
Object type
Payload
Rocket body
Debris
Shape & HBR
Box + 2 Pan, 17.7 m
Radar Cross Section
36.964 m², Large (>1 m²)

Expand to show TLE details & history
Last TLE update: 22 hours ago

TLE from 22 hours ago
0 STARLINK-36486
1 67335U 26003B   26170.93410402  .00023918  00000-0  87537-3 0  9990
2 67335  43.0039   9.4071 0001270 280.1838  79.8870 15.27598599 24461
Epoch: 2026-06-19T22:25Z
TLE epoch observation values (Epoch: 2026-06-19T22:25:06.587Z)
Latitude
-0.00004°
Longitude
124.97365°
Altitude
482.616 km
Speed
7.626 km/s
True Right ascension
00h 37m 37s
True Declination
0° 00' 00"
Sunlit
Object was in daylight at epoch
Visualization orbit readout
Latitude
Unknown
Longitude
Unknown
Altitude
Unknown
Speed
Unknown
Apparent Right ascension
Unknown
Apparent Declination
Unknown
Sunlit
N/A
Visualization observer readout
Local Sidereal Time
07:20:44
Azimuth
Unknown
Elevation
Unknown
Doppler factor
Unknown
Orbital elements
Apogee altitude
485.81 km
Perigee altitude
484.066 km
Semi-major axis
6,863.075 km
Eccentricity
0.00013
Inclination
43.0039°
RAAN
9.4071°
Arg. of periapsis
280.1838°
True anomaly
79.90133°
Mean anomaly
79.887°
Eccentric anomaly
79.89416°
Mean motion
3.81738 °/min
Orbital period
94.31 mins
BSTAR
0.00087537
Loading maneuver chart data...
Computing Atmospheric mass density...
Loading historical data...
Loading historical data...
Loading historical data...
Loading historical data...
Loading historical data...
Loading historical data...
Loading historical data...

Documentation

Showing up to 5 results
|